TimeMDT,TemperatureF,Dew PointF,Humidity,Sea Level PressureIn,VisibilityMPH,Wind Direction,Wind SpeedMPH,Gust SpeedMPH,PrecipitationIn,Events,Conditions,WindDirDegrees,DateUTC
12:53 AM,69.1,26.1,20,29.70,10.0,West,15.0,-,N/A,,Clear,280,2013-05-20 06:53:00
2:53 AM,63.0,27.0,26,29.72,10.0,West,10.4,-,N/A,,Clear,280,2013-05-20 08:53:00
3:53 AM,57.0,25.0,29,29.74,10.0,North,6.9,-,N/A,,Clear,350,2013-05-20 09:53:00
6:53 AM,54.0,26.1,34,29.80,10.0,West,5.8,-,N/A,,Clear,280,2013-05-20 12:53:00
7:53 AM,63.0,28.0,27,29.80,10.0,West,4.6,-,N/A,,Clear,270,2013-05-20 13:53:00
8:53 AM,72.0,30.0,21,29.78,10.0,WNW,11.5,-,N/A,,Clear,290,2013-05-20 14:53:00
9:53 AM,77.0,28.9,17,29.77,10.0,NNW,13.8,-,N/A,,Clear,340,2013-05-20 15:53:00
10:53 AM,79.0,25.0,14,29.76,10.0,West,12.7,24.2,N/A,,Clear,270,2013-05-20 16:53:00
11:53 AM,82.0,24.1,12,29.74,10.0,West,20.7,25.3,N/A,,Clear,270,2013-05-20 17:53:00
12:53 PM,82.9,21.9,11,29.71,10.0,WNW,20.7,27.6,N/A,,Clear,290,2013-05-20 18:53:00
1:53 PM,84.9,21.9,10,29.69,10.0,WSW,23.0,28.8,N/A,,Clear,240,2013-05-20 19:53:00
2:53 PM,86.0,17.1,8,29.67,9.0,West,16.1,35.7,N/A,,Clear,270,2013-05-20 20:53:00
3:02 PM,87.8,17.6,8,29.89,2.5,West,25.3,36.8,N/A,,Haze,260,2013-05-20 21:02:00
3:15 PM,86.0,17.6,8,29.88,6.0,West,21.9,34.5,N/A,,Haze,280,2013-05-20 21:15:00
3:53 PM,87.1,18.0,8,29.66,2.5,West,25.3,42.6,N/A,,Haze,260,2013-05-20 21:53:00
4:02 PM,87.8,17.6,8,29.86,4.0,West,29.9,36.8,N/A,,Haze,270,2013-05-20 22:02:00
4:53 PM,87.1,19.0,8,29.63,6.0,WSW,23.0,34.5,N/A,,Haze,250,2013-05-20 22:53:00
5:53 PM,84.9,19.9,9,29.63,6.0,West,19.6,38.0,N/A,,Haze,280,2013-05-20 23:53:00
6:53 PM,82.9,19.9,10,29.63,9.0,WNW,24.2,34.5,N/A,,Clear,290,2013-05-21 00:53:00
7:53 PM,80.1,19.0,10,29.64,9.0,West,19.6,32.2,N/A,,Clear,280,2013-05-21 01:53:00
8:53 PM,75.9,18.0,11,29.67,10.0,WNW,19.6,28.8,N/A,,Clear,300,2013-05-21 02:53:00
9:53 PM,73.9,15.1,11,29.69,10.0,WNW,12.7,24.2,N/A,,Clear,300,2013-05-21 03:53:00
10:53 PM,70.0,16.0,13,29.73,10.0,WNW,11.5,-,N/A,,Clear,290,2013-05-21 04:53:00
11:53 PM,68.0,16.0,14,29.75,10.0,NNW,8.1,20.7,N/A,,Clear,340,2013-05-21 05:53:00